64.0°F
Current conditions from King Hill
Updated every 5 minutes
 
  Thursday August 28, 2014

Station Historical Data
Daily Summary for March 22, 2012 Units:  English    Metric   Both
« Previous Day
Next Day »
Daily Weekly Monthly Yearly Custom
  High: Low: Average:
Temperature: 78.7 °F 55.0 °F 65.2 °F
Dew Point: 55.9 °F 45.9 °F 52.5 °F
Humidity: 85% 43% 65%
Wind Speed: 9.0mph 1.0mph 4.5mph
Wind Gust: 19.0mph - -
Wind- - SW
Pressure: 30.13 in 30.00 in -
Precipitation: 0.00 in    
Historical Graphs
 
 
Tabular Data for March 22, 2012
Time Temperature Dew Point Pressure Wind Wind Speed Wind Gust Humidity Daily Rainfall
00:04 63.0 °F 46.1 °F 30.13 in SSW 2.0 mph 7.0 mph 54% 0.00 in
00:09 62.8 °F 45.9 °F 30.13 in SSW 4.0 mph 7.0 mph 54% 0.00 in
00:15 62.5 °F 46.1 °F 30.13 in SSW 3.0 mph 7.0 mph 55% 0.00 in
00:19 62.4 °F 46.0 °F 30.13 in SSW 4.0 mph 7.0 mph 55% 0.00 in
00:25 62.3 °F 46.4 °F 30.13 in SSW 4.0 mph 10.0 mph 56% 0.00 in
00:30 62.4 °F 46.5 °F 30.13 in SSW 4.0 mph 10.0 mph 56% 0.00 in
00:35 62.3 °F 46.4 °F 30.12 in SSW 5.0 mph 8.0 mph 56% 0.00 in
00:39 62.3 °F 46.9 °F 30.12 in SSW 5.0 mph 9.0 mph 57% 0.00 in
00:45 62.3 °F 47.3 °F 30.12 in SSW 5.0 mph 9.0 mph 58% 0.00 in
00:50 62.3 °F 47.8 °F 30.12 in SSW 4.0 mph 9.0 mph 59% 0.00 in
00:54 62.2 °F 48.2 °F 30.12 in SSW 5.0 mph 10.0 mph 60% 0.00 in
00:59 62.0 °F 48.4 °F 30.12 in SSW 4.0 mph 10.0 mph 61% 0.00 in
01:04 61.8 °F 48.7 °F 30.12 in SSW 4.0 mph 10.0 mph 62% 0.00 in
01:09 61.6 °F 48.9 °F 30.12 in SSW 5.0 mph 9.0 mph 63% 0.00 in
01:14 61.3 °F 48.6 °F 30.12 in SSW 3.0 mph 8.0 mph 63% 0.00 in
01:19 60.9 °F 48.7 °F 30.12 in SSW 4.0 mph 8.0 mph 64% 0.00 in
01:24 60.9 °F 49.1 °F 30.12 in SSW 4.0 mph 8.0 mph 65% 0.00 in
01:30 60.7 °F 49.3 °F 30.12 in SSW 5.0 mph 9.0 mph 66% 0.00 in
01:35 60.5 °F 49.5 °F 30.12 in SSW 5.0 mph 9.0 mph 67% 0.00 in
01:40 60.4 °F 49.4 °F 30.12 in SSW 5.0 mph 9.0 mph 67% 0.00 in
01:44 60.4 °F 50.2 °F 30.12 in SSW 5.0 mph 9.0 mph 69% 0.00 in
01:50 60.4 °F 50.2 °F 30.13 in SSW 6.0 mph 11.0 mph 69% 0.00 in
01:54 60.4 °F 50.6 °F 30.13 in SSW 4.0 mph 11.0 mph 70% 0.00 in
01:59 60.2 °F 50.4 °F 30.13 in SSW 5.0 mph 9.0 mph 70% 0.00 in
02:04 59.9 °F 50.5 °F 30.13 in SSW 5.0 mph 8.0 mph 71% 0.00 in
02:09 59.6 °F 50.2 °F 30.13 in SSW 5.0 mph 9.0 mph 71% 0.00 in
02:14 59.6 °F 50.6 °F 30.13 in SSW 5.0 mph 9.0 mph 72% 0.00 in
02:19 59.5 °F 50.8 °F 30.13 in SSW 4.0 mph 9.0 mph 73% 0.00 in
02:24 59.4 °F 50.8 °F 30.13 in SSW 5.0 mph 9.0 mph 73% 0.00 in
02:29 59.3 °F 50.7 °F 30.13 in SSW 5.0 mph 8.0 mph 73% 0.00 in
02:34 59.5 °F 50.8 °F 30.13 in SSW 5.0 mph 9.0 mph 73% 0.00 in
02:39 59.5 °F 50.8 °F 30.13 in SSW 5.0 mph 9.0 mph 73% 0.00 in
02:44 59.3 °F 50.7 °F 30.13 in SSW 5.0 mph 8.0 mph 73% 0.00 in
02:49 59.2 °F 50.9 °F 30.13 in SSW 5.0 mph 8.0 mph 74% 0.00 in
02:54 59.0 °F 50.7 °F 30.12 in SSW 5.0 mph 9.0 mph 74% 0.00 in
02:59 59.0 °F 51.1 °F 30.12 in SSW 6.0 mph 9.0 mph 75% 0.00 in
03:05 59.0 °F 50.7 °F 30.12 in SSW 6.0 mph 10.0 mph 74% 0.00 in
03:09 59.0 °F 51.1 °F 30.11 in SSW 6.0 mph 10.0 mph 75% 0.00 in
03:14 59.2 °F 50.9 °F 30.11 in SSW 6.0 mph 10.0 mph 74% 0.00 in
03:19 59.5 °F 51.2 °F 30.11 in SSW 6.0 mph 11.0 mph 74% 0.00 in
03:24 59.3 °F 51.0 °F 30.11 in SSW 5.0 mph 11.0 mph 74% 0.00 in
03:30 59.0 °F 50.7 °F 30.11 in SSW 6.0 mph 10.0 mph 74% 0.00 in
03:39 59.0 °F 51.1 °F 30.11 in SSW 6.0 mph 11.0 mph 75% 0.00 in
03:44 59.0 °F 51.1 °F 30.10 in SSW 6.0 mph 11.0 mph 75% 0.00 in
03:50 58.8 °F 50.9 °F 30.10 in SSW 5.0 mph 8.0 mph 75% 0.00 in
03:54 58.5 °F 51.0 °F 30.10 in SSW 5.0 mph 10.0 mph 76% 0.00 in
03:59 58.3 °F 50.8 °F 30.10 in SSW 5.0 mph 10.0 mph 76% 0.00 in
04:04 58.1 °F 50.6 °F 30.10 in SSW 6.0 mph 10.0 mph 76% 0.00 in
04:09 58.1 °F 50.9 °F 30.10 in SSW 5.0 mph 9.0 mph 77% 0.00 in
04:14 58.0 °F 50.8 °F 30.10 in SSW 6.0 mph 12.0 mph 77% 0.00 in
04:19 58.1 °F 50.9 °F 30.10 in SSW 6.0 mph 12.0 mph 77% 0.00 in
04:24 58.1 °F 50.9 °F 30.10 in SSW 6.0 mph 9.0 mph 77% 0.00 in
04:29 58.0 °F 50.8 °F 30.10 in SSW 6.0 mph 9.0 mph 77% 0.00 in
04:34 57.7 °F 50.5 °F 30.10 in SSW 6.0 mph 11.0 mph 77% 0.00 in
04:40 57.6 °F 50.8 °F 30.10 in SSW 5.0 mph 11.0 mph 78% 0.00 in
04:49 57.4 °F 50.6 °F 30.10 in SSW 5.0 mph 10.0 mph 78% 0.00 in
04:54 57.3 °F 50.5 °F 30.10 in SSW 4.0 mph 9.0 mph 78% 0.00 in
04:59 57.1 °F 50.7 °F 30.10 in SSW 5.0 mph 9.0 mph 79% 0.00 in
05:04 56.9 °F 50.5 °F 30.10 in SSW 4.0 mph 8.0 mph 79% 0.00 in
05:09 56.9 °F 50.5 °F 30.10 in SSW 5.0 mph 8.0 mph 79% 0.00 in
05:14 56.9 °F 50.8 °F 30.10 in SSW 5.0 mph 8.0 mph 80% 0.00 in
05:19 56.9 °F 50.5 °F 30.10 in SW 4.0 mph 8.0 mph 79% 0.00 in
05:24 56.9 °F 50.8 °F 30.10 in SSW 6.0 mph 9.0 mph 80% 0.00 in
05:29 57.2 °F 51.4 °F 30.10 in SSW 6.0 mph 10.0 mph 81% 0.00 in
05:34 57.3 °F 51.2 °F 30.10 in SSW 5.0 mph 10.0 mph 80% 0.00 in
05:39 57.3 °F 51.2 °F 30.10 in SSW 6.0 mph 8.0 mph 80% 0.00 in
05:44 57.2 °F 51.1 °F 30.10 in SSW 6.0 mph 9.0 mph 80% 0.00 in
05:49 57.3 °F 51.5 °F 30.10 in SSW 6.0 mph 10.0 mph 81% 0.00 in
05:54 57.5 °F 51.7 °F 30.10 in SSW 7.0 mph 11.0 mph 81% 0.00 in
05:59 57.6 °F 51.8 °F 30.10 in SSW 6.0 mph 11.0 mph 81% 0.00 in
06:04 57.5 °F 51.4 °F 30.10 in SSW 6.0 mph 11.0 mph 80% 0.00 in
06:09 57.6 °F 51.8 °F 30.10 in SSW 6.0 mph 12.0 mph 81% 0.00 in
06:14 57.7 °F 51.9 °F 30.09 in SSW 7.0 mph 13.0 mph 81% 0.00 in
06:19 57.6 °F 51.8 °F 30.09 in SSW 6.0 mph 13.0 mph 81% 0.00 in
06:24 57.3 °F 51.5 °F 30.09 in SSW 5.0 mph 11.0 mph 81% 0.00 in
06:29 57.1 °F 51.3 °F 30.09 in SW 5.0 mph 10.0 mph 81% 0.00 in
06:34 56.9 °F 51.5 °F 30.09 in SSW 4.0 mph 9.0 mph 82% 0.00 in
06:39 56.6 °F 51.2 °F 30.10 in SW 5.0 mph 9.0 mph 82% 0.00 in
06:44 56.5 °F 51.1 °F 30.10 in SW 4.0 mph 9.0 mph 82% 0.00 in
06:49 56.2 °F 50.8 °F 30.10 in SSW 4.0 mph 9.0 mph 82% 0.00 in
06:54 55.8 °F 50.7 °F 30.10 in SSW 3.0 mph 9.0 mph 83% 0.00 in
06:59 55.5 °F 50.4 °F 30.11 in Calm   6.0 mph 83% 0.00 in
07:04 55.1 °F 50.4 °F 30.11 in SW 2.0 mph 6.0 mph 84% 0.00 in
07:09 55.0 °F 50.3 °F 30.11 in SSW 2.0 mph 6.0 mph 84% 0.00 in
07:14 55.1 °F 50.7 °F 30.11 in SSW 3.0 mph 6.0 mph 85% 0.00 in
07:19 55.5 °F 51.1 °F 30.11 in SSW 5.0 mph 8.0 mph 85% 0.00 in
07:24 56.5 °F 52.0 °F 30.11 in SSW 7.0 mph 13.0 mph 85% 0.00 in
07:29 56.8 °F 51.7 °F 30.11 in SSW 6.0 mph 13.0 mph 83% 0.00 in
07:34 57.1 °F 52.0 °F 30.11 in SW 7.0 mph 15.0 mph 83% 0.00 in
07:39 57.3 °F 52.2 °F 30.11 in SSW 6.0 mph 15.0 mph 83% 0.00 in
07:44 57.5 °F 52.1 °F 30.11 in SSW 6.0 mph 13.0 mph 82% 0.00 in
07:49 57.7 °F 52.2 °F 30.11 in SSW 5.0 mph 12.0 mph 82% 0.00 in
07:54 57.9 °F 52.4 °F 30.11 in SSW 6.0 mph 14.0 mph 82% 0.00 in
07:59 58.0 °F 52.5 °F 30.11 in SSW 6.0 mph 14.0 mph 82% 0.00 in
08:04 58.3 °F 52.5 °F 30.11 in SW 7.0 mph 16.0 mph 81% 0.00 in
08:09 58.6 °F 52.8 °F 30.12 in SSW 8.0 mph 16.0 mph 81% 0.00 in
08:14 59.0 °F 52.8 °F 30.11 in SW 7.0 mph 14.0 mph 80% 0.00 in
08:19 59.0 °F 52.8 °F 30.12 in SW 7.0 mph 15.0 mph 80% 0.00 in
08:25 59.2 °F 53.0 °F 30.12 in SSW 7.0 mph 15.0 mph 80% 0.00 in
08:34 59.9 °F 53.0 °F 30.12 in SSW 7.0 mph 13.0 mph 78% 0.00 in
08:39 60.3 °F 53.4 °F 30.11 in SSW 3.0 mph 13.0 mph 78% 0.00 in
08:44 60.7 °F 53.5 °F 30.11 in SSW 5.0 mph 12.0 mph 77% 0.00 in
08:49 60.8 °F 53.6 °F 30.11 in SSW 6.0 mph 12.0 mph 77% 0.00 in
08:54 60.9 °F 53.3 °F 30.11 in SSW 5.0 mph 12.0 mph 76% 0.00 in
08:59 60.9 °F 53.3 °F 30.11 in SSW 7.0 mph 12.0 mph 76% 0.00 in
09:04 60.8 °F 53.2 °F 30.11 in SSW 6.0 mph 17.0 mph 76% 0.00 in
09:09 60.8 °F 53.2 °F 30.11 in SSW 6.0 mph 17.0 mph 76% 0.00 in
09:14 60.9 °F 53.3 °F 30.11 in SSW 5.0 mph 13.0 mph 76% 0.00 in
09:19 61.2 °F 53.6 °F 30.10 in SSW 6.0 mph 13.0 mph 76% 0.00 in
09:24 61.7 °F 53.7 °F 30.10 in SSW 7.0 mph 14.0 mph 75% 0.00 in
09:29 62.0 °F 53.6 °F 30.10 in SSW 6.0 mph 14.0 mph 74% 0.00 in
09:34 62.3 °F 53.5 °F 30.09 in SSW 8.0 mph 14.0 mph 73% 0.00 in
09:39 62.7 °F 54.3 °F 30.09 in SSW 5.0 mph 14.0 mph 74% 0.00 in
09:44 63.3 °F 54.1 °F 30.09 in SSW 7.0 mph 13.0 mph 72% 0.00 in
09:49 63.6 °F 54.0 °F 30.09 in SW 8.0 mph 13.0 mph 71% 0.00 in
09:54 63.7 °F 53.7 °F 30.09 in SW 9.0 mph 13.0 mph 70% 0.00 in
09:59 63.8 °F 54.2 °F 30.09 in SW 6.0 mph 15.0 mph 71% 0.00 in
10:04 64.4 °F 54.0 °F 30.08 in SW 8.0 mph 15.0 mph 69% 0.00 in
10:09 64.9 °F 54.1 °F 30.08 in SW 5.0 mph 13.0 mph 68% 0.00 in
10:14 65.7 °F 54.0 °F 30.08 in SW 6.0 mph 13.0 mph 66% 0.00 in
10:19 66.3 °F 54.2 °F 30.08 in SW 7.0 mph 13.0 mph 65% 0.00 in
10:24 66.5 °F 54.4 °F 30.08 in SW 7.0 mph 13.0 mph 65% 0.00 in
10:30 67.0 °F 54.4 °F 30.08 in SW 7.0 mph 13.0 mph 64% 0.00 in
10:34 67.6 °F 54.6 °F 30.08 in SW 6.0 mph 10.0 mph 63% 0.00 in
10:40 68.4 °F 55.3 °F 30.08 in SW 2.0 mph 9.0 mph 63% 0.00 in
10:49 68.8 °F 54.8 °F 30.08 in SSW 5.0 mph 11.0 mph 61% 0.00 in
10:54 69.5 °F 55.0 °F 30.08 in SSW 4.0 mph 10.0 mph 60% 0.00 in
10:59 69.7 °F 54.7 °F 30.08 in SW 3.0 mph 9.0 mph 59% 0.00 in
11:04 70.4 °F 54.9 °F 30.08 in SSW 3.0 mph 9.0 mph 58% 0.00 in
11:09 71.2 °F 55.2 °F 30.08 in SW 3.0 mph 8.0 mph 57% 0.00 in
11:14 71.3 °F 54.8 °F 30.08 in SW 8.0 mph 13.0 mph 56% 0.00 in
11:19 71.4 °F 54.4 °F 30.07 in WSW 4.0 mph 14.0 mph 55% 0.00 in
11:24 72.4 °F 54.8 °F 30.07 in SW 4.0 mph 14.0 mph 54% 0.00 in
11:29 72.9 °F 55.3 °F 30.07 in WSW 5.0 mph 11.0 mph 54% 0.00 in
11:34 72.9 °F 54.3 °F 30.07 in SW 6.0 mph 11.0 mph 52% 0.00 in
11:39 72.9 °F 54.3 °F 30.07 in WSW 6.0 mph 12.0 mph 52% 0.00 in
11:44 73.0 °F 54.4 °F 30.07 in SW 5.0 mph 12.0 mph 52% 0.00 in
11:49 73.1 °F 54.4 °F 30.07 in WSW 6.0 mph 12.0 mph 52% 0.00 in
11:54 73.4 °F 54.2 °F 30.07 in WSW 6.0 mph 11.0 mph 51% 0.00 in
11:59 73.7 °F 53.9 °F 30.07 in West 8.0 mph 13.0 mph 50% 0.00 in
12:04 74.2 °F 54.4 °F 30.07 in West 5.0 mph 13.0 mph 50% 0.00 in
12:09 74.5 °F 54.7 °F 30.07 in WSW 6.0 mph 11.0 mph 50% 0.00 in
12:14 74.3 °F 54.5 °F 30.07 in SW 4.0 mph 11.0 mph 50% 0.00 in
12:20 74.6 °F 54.2 °F 30.07 in WSW 5.0 mph 9.0 mph 49% 0.00 in
12:24 74.8 °F 55.5 °F 30.06 in SW 4.0 mph 10.0 mph 51% 0.00 in
12:29 75.0 °F 54.6 °F 30.06 in WSW 5.0 mph 10.0 mph 49% 0.00 in
12:35 75.5 °F 54.5 °F 30.06 in West 4.0 mph 10.0 mph 48% 0.00 in
12:44 75.5 °F 54.5 °F 30.05 in WNW 5.0 mph 10.0 mph 48% 0.00 in
12:49 76.2 °F 53.9 °F 30.05 in WSW 4.0 mph 10.0 mph 46% 0.00 in
12:54 76.7 °F 54.4 °F 30.05 in WSW 4.0 mph 10.0 mph 46% 0.00 in
12:59 77.2 °F 54.8 °F 30.05 in WSW 6.0 mph 10.0 mph 46% 0.00 in
13:04 77.2 °F 53.6 °F 30.05 in WNW 4.0 mph 10.0 mph 44% 0.00 in
13:09 77.4 °F 53.8 °F 30.05 in West 2.0 mph 10.0 mph 44% 0.00 in
13:14 77.5 °F 53.3 °F 30.05 in WNW 3.0 mph 10.0 mph 43% 0.00 in
13:19 76.9 °F 54.0 °F 30.05 in West 5.0 mph 12.0 mph 45% 0.00 in
13:24 76.8 °F 54.5 °F 30.04 in NW 2.0 mph 12.0 mph 46% 0.00 in
13:29 77.2 °F 54.2 °F 30.04 in West 6.0 mph 10.0 mph 45% 0.00 in
13:34 77.1 °F 53.5 °F 30.04 in NNE 1.0 mph 13.0 mph 44% 0.00 in
13:39 77.7 °F 54.1 °F 30.04 in WNW 3.0 mph 13.0 mph 44% 0.00 in
13:44 78.0 °F 53.7 °F 30.03 in NW 3.0 mph 11.0 mph 43% 0.00 in
13:49 77.8 °F 54.2 °F 30.03 in North 3.0 mph 11.0 mph 44% 0.00 in
13:59 78.2 °F 53.9 °F 30.03 in WNW 5.0 mph 10.0 mph 43% 0.00 in
14:04 77.7 °F 54.7 °F 30.03 in WNW 3.0 mph 11.0 mph 45% 0.00 in
14:09 78.5 °F 55.4 °F 30.03 in North 4.0 mph 11.0 mph 45% 0.00 in
14:14 78.4 °F 54.1 °F 30.03 in NW 2.0 mph 11.0 mph 43% 0.00 in
14:19 77.2 °F 54.2 °F 30.02 in WNW 6.0 mph 11.0 mph 45% 0.00 in
14:24 76.6 °F 54.3 °F 30.02 in NNW 3.0 mph 11.0 mph 46% 0.00 in
14:30 76.4 °F 54.1 °F 30.02 in NNW 6.0 mph 13.0 mph 46% 0.00 in
14:34 77.1 °F 55.3 °F 30.02 in NNW 3.0 mph 13.0 mph 47% 0.00 in
14:39 77.6 °F 55.2 °F 30.02 in NNW 2.0 mph 12.0 mph 46% 0.00 in
14:44 78.1 °F 55.1 °F 30.02 in NNE 3.0 mph 11.0 mph 45% 0.00 in
14:49 78.4 °F 55.3 °F 30.01 in NNW 5.0 mph 12.0 mph 45% 0.00 in
14:54 78.3 °F 55.2 °F 30.02 in North 4.0 mph 12.0 mph 45% 0.00 in
14:59 78.4 °F 55.9 °F 30.02 in North 3.0 mph 13.0 mph 46% 0.00 in
15:04 78.7 °F 55.6 °F 30.01 in North 4.0 mph 13.0 mph 45% 0.00 in
15:09 78.1 °F 55.1 °F 30.01 in NNE 1.0 mph 10.0 mph 45% 0.00 in
15:14 77.0 °F 55.8 °F 30.01 in North 2.0 mph 14.0 mph 48% 0.00 in
15:19 76.4 °F 55.3 °F 30.01 in North 2.0 mph 14.0 mph 48% 0.00 in
15:24 76.2 °F 55.1 °F 30.01 in North 2.0 mph 12.0 mph 48% 0.00 in
15:30 75.9 °F 54.3 °F 30.01 in NNW 5.0 mph 19.0 mph 47% 0.00 in
15:34 76.2 °F 54.5 °F 30.01 in NNW 4.0 mph 19.0 mph 47% 0.00 in
15:39 76.3 °F 54.6 °F 30.01 in NNW 3.0 mph 14.0 mph 47% 0.00 in
15:44 76.3 °F 54.6 °F 30.01 in NNE 2.0 mph 14.0 mph 47% 0.00 in
15:49 76.7 °F 55.0 °F 30.01 in North 2.0 mph 11.0 mph 47% 0.00 in
15:54 77.1 °F 55.3 °F 30.01 in NNW 3.0 mph 11.0 mph 47% 0.00 in
15:59 77.5 °F 55.1 °F 30.01 in NNW 2.0 mph 13.0 mph 46% 0.00 in
16:04 77.0 °F 54.1 °F 30.01 in NW 9.0 mph 18.0 mph 45% 0.00 in
16:09 76.0 °F 54.3 °F 30.01 in NNW 6.0 mph 18.0 mph 47% 0.00 in
16:14 76.1 °F 55.0 °F 30.01 in NNW 5.0 mph 14.0 mph 48% 0.00 in
16:19 76.1 °F 54.4 °F 30.01 in NW 6.0 mph 14.0 mph 47% 0.00 in
16:24 75.8 °F 54.2 °F 30.01 in NNW 8.0 mph 15.0 mph 47% 0.00 in
16:29 75.2 °F 54.2 °F 30.01 in NW 8.0 mph 16.0 mph 48% 0.00 in
16:34 74.6 °F 54.8 °F 30.01 in NNW 7.0 mph 19.0 mph 50% 0.00 in
16:40 74.7 °F 54.8 °F 30.01 in NNW 4.0 mph 19.0 mph 50% 0.00 in
16:49 74.4 °F 55.1 °F 30.01 in Calm   12.0 mph 51% 0.00 in
16:54 74.1 °F 54.3 °F 30.01 in NNW 7.0 mph 14.0 mph 50% 0.00 in
16:59 73.7 °F 55.0 °F 30.01 in North 3.0 mph 14.0 mph 52% 0.00 in
17:04 73.2 °F 54.5 °F 30.01 in NNW 3.0 mph 9.0 mph 52% 0.00 in
17:09 72.5 °F 54.4 °F 30.01 in NNW 3.0 mph 12.0 mph 53% 0.00 in
17:14 72.0 °F 54.5 °F 30.01 in North 2.0 mph 12.0 mph 54% 0.00 in
17:20 71.7 °F 54.7 °F 30.01 in North 3.0 mph 11.0 mph 55% 0.00 in
17:30 71.1 °F 55.1 °F 30.01 in Calm   8.0 mph 57% 0.00 in
17:39 71.0 °F 54.5 °F 30.01 in North 1.0 mph 11.0 mph 56% 0.00 in
17:45 70.8 °F 54.8 °F 30.01 in NNW 1.0 mph 11.0 mph 57% 0.00 in
17:54 70.1 °F 54.7 °F 30.01 in Calm   8.0 mph 58% 0.00 in
17:59 69.9 °F 54.5 °F 30.01 in NNW 1.0 mph 5.0 mph 58% 0.00 in
18:04 69.7 °F 54.3 °F 30.01 in NNW 3.0 mph 8.0 mph 58% 0.00 in
18:09 69.6 °F 54.7 °F 30.01 in Calm   9.0 mph 59% 0.00 in
18:14 69.5 °F 54.6 °F 30.01 in NW 2.0 mph 9.0 mph 59% 0.00 in
18:19 69.3 °F 54.4 °F 30.01 in Calm   6.0 mph 59% 0.00 in
18:24 69.1 °F 54.6 °F 30.01 in NW 1.0 mph 7.0 mph 60% 0.00 in
18:30 68.9 °F 54.5 °F 30.01 in Calm   7.0 mph 60% 0.00 in
18:35 68.7 °F 54.3 °F 30.01 in Calm   4.0 mph 60% 0.00 in
18:44 68.1 °F 54.2 °F 30.00 in Calm     61% 0.00 in
18:49 67.9 °F 54.4 °F 30.01 in Calm   1.0 mph 62% 0.00 in
18:54 67.6 °F 54.1 °F 30.01 in Calm   1.0 mph 62% 0.00 in
18:59 67.4 °F 54.4 °F 30.01 in Calm   1.0 mph 63% 0.00 in
19:04 67.1 °F 54.1 °F 30.01 in Calm     63% 0.00 in
19:09 66.8 °F 54.2 °F 30.02 in Calm   1.0 mph 64% 0.00 in
19:14 66.5 °F 54.0 °F 30.02 in Calm   4.0 mph 64% 0.00 in
19:19 66.3 °F 53.8 °F 30.02 in NW 1.0 mph 6.0 mph 64% 0.00 in
19:24 66.3 °F 54.2 °F 30.03 in NW 1.0 mph 6.0 mph 65% 0.00 in
19:29 66.2 °F 54.1 °F 30.03 in NW 2.0 mph 6.0 mph 65% 0.00 in
19:34 66.1 °F 54.0 °F 30.03 in Calm   5.0 mph 65% 0.00 in
19:39 66.1 °F 54.0 °F 30.03 in NW 3.0 mph 6.0 mph 65% 0.00 in
19:44 66.3 °F 54.2 °F 30.03 in NNW 2.0 mph 6.0 mph 65% 0.00 in
19:49 66.3 °F 54.6 °F 30.03 in Calm   5.0 mph 66% 0.00 in
19:54 66.2 °F 54.9 °F 30.03 in NNW 1.0 mph 9.0 mph 67% 0.00 in
19:59 66.1 °F 54.8 °F 30.04 in North 2.0 mph 10.0 mph 67% 0.00 in
20:04 66.1 °F 54.4 °F 30.04 in North 2.0 mph 10.0 mph 66% 0.00 in
20:09 65.9 °F 54.2 °F 30.04 in Calm   8.0 mph 66% 0.00 in
20:14 65.6 °F 53.9 °F 30.04 in NNW 1.0 mph 8.0 mph 66% 0.00 in
20:19 65.4 °F 53.8 °F 30.04 in North 1.0 mph 10.0 mph 66% 0.00 in
20:24 65.2 °F 53.6 °F 30.04 in Calm   10.0 mph 66% 0.00 in
20:29 64.9 °F 53.7 °F 30.04 in North 3.0 mph 9.0 mph 67% 0.00 in
20:34 64.8 °F 53.6 °F 30.04 in NNE 1.0 mph 9.0 mph 67% 0.00 in
20:39 64.6 °F 53.8 °F 30.04 in NNE 1.0 mph 9.0 mph 68% 0.00 in
20:44 64.4 °F 53.6 °F 30.04 in North 1.0 mph 9.0 mph 68% 0.00 in
20:49 64.3 °F 53.5 °F 30.04 in Calm   8.0 mph 68% 0.00 in
20:54 64.2 °F 53.8 °F 30.04 in NNW 2.0 mph 8.0 mph 69% 0.00 in
20:59 64.0 °F 53.6 °F 30.04 in Calm   8.0 mph 69% 0.00 in
21:04 63.7 °F 53.7 °F 30.04 in Calm   2.0 mph 70% 0.00 in
21:09 63.4 °F 53.5 °F 30.04 in Calm   4.0 mph 70% 0.00 in
21:14 63.1 °F 53.6 °F 30.03 in Calm   4.0 mph 71% 0.00 in
21:19 62.9 °F 53.4 °F 30.04 in Calm     71% 0.00 in
21:24 62.5 °F 53.0 °F 30.04 in Calm   1.0 mph 71% 0.00 in
21:29 62.2 °F 53.1 °F 30.05 in Calm   4.0 mph 72% 0.00 in
21:35 61.9 °F 53.2 °F 30.05 in Calm   7.0 mph 73% 0.00 in
21:44 62.0 °F 53.6 °F 30.05 in NNE 4.0 mph 13.0 mph 74% 0.00 in
21:49 62.0 °F 53.3 °F 30.05 in NE 4.0 mph 13.0 mph 73% 0.00 in
21:54 61.9 °F 53.2 °F 30.05 in North 2.0 mph 11.0 mph 73% 0.00 in
21:59 61.7 °F 53.3 °F 30.06 in Calm   10.0 mph 74% 0.00 in
22:04 61.4 °F 53.0 °F 30.06 in Calm   10.0 mph 74% 0.00 in
22:09 61.1 °F 52.4 °F 30.06 in Calm   9.0 mph 73% 0.00 in
22:14 60.8 °F 52.1 °F 30.06 in North 1.0 mph 8.0 mph 73% 0.00 in
22:19 60.4 °F 51.7 °F 30.06 in Calm   8.0 mph 73% 0.00 in
22:24 59.9 °F 50.9 °F 30.06 in Calm   8.0 mph 72% 0.00 in
22:29 59.7 °F 50.7 °F 30.06 in NNE 3.0 mph 10.0 mph 72% 0.00 in
22:34 59.6 °F 49.8 °F 30.06 in NNE 1.0 mph 10.0 mph 70% 0.00 in
22:39 59.3 °F 49.5 °F 30.06 in Calm   7.0 mph 70% 0.00 in
22:45 59.0 °F 49.2 °F 30.06 in Calm   6.0 mph 70% 0.00 in
22:54 58.4 °F 49.0 °F 30.06 in NE 1.0 mph 9.0 mph 71% 0.00 in
22:59 58.4 °F 49.0 °F 30.06 in Calm   9.0 mph 71% 0.00 in
23:04 58.4 °F 49.0 °F 30.06 in Calm   8.0 mph 71% 0.00 in
23:09 58.3 °F 48.9 °F 30.06 in Calm   5.0 mph 71% 0.00 in
23:14 58.1 °F 48.8 °F 30.06 in Calm   6.0 mph 71% 0.00 in
23:19 58.1 °F 48.8 °F 30.07 in Calm   6.0 mph 71% 0.00 in
23:24 57.8 °F 48.5 °F 30.07 in Calm   5.0 mph 71% 0.00 in
23:29 57.7 °F 48.7 °F 30.07 in Calm     72% 0.00 in
23:34 57.5 °F 48.6 °F 30.07 in Calm     72% 0.00 in
23:40 57.4 °F 48.8 °F 30.06 in Calm     73% 0.00 in
23:49 57.2 °F 48.6 °F 30.06 in Calm   1.0 mph 73% 0.00 in
23:54 57.0 °F 48.4 °F 30.06 in NNE 1.0 mph 4.0 mph 73% 0.00 in
23:59 56.7 °F 48.5 °F 30.06 in Calm   4.0 mph 74% 0.00 in
Westford Weather
Compliments of Weather Underground

 
 
Current Radar Loop:

Copyright © WestfordWeather.net 2007-2014. All rights reserved.